Tillbaka till svenska Fidonet
English   Information   Debug  
FILM   0/18
FNEWS_PUBLISH   4737
FN_SYSOP   42015
FN_SYSOP_OLD1   71952
FTP_FIDO   0/2
FTSC_PUBLIC   0/13898
FUNNY   0/4886
GENEALOGY.EUR   0/71
GET_INFO   105
GOLDED   0/408
HAM   2014/16305
HOLYSMOKE   0/6791
HOT_SITES   0/1
HTMLEDIT   0/71
HUB203   466
HUB_100   264
HUB_400   39
HUMOR   0/29
IC   0/2851
INTERNET   0/424
INTERUSER   0/3
IP_CONNECT   719
JAMNNTPD   0/233
JAMTLAND   0/47
KATTY_KORNER   0/41
LAN   0/16
LINUX-USER   0/19
LINUXHELP   1122/1155
LINUX   5787/22266
LINUX_BBS   0/957
mail   18.68
mail_fore_ok   249
MENSA   0/341
MODERATOR   0/102
MONTE   0/992
MOSCOW_OKLAHOMA   0/1245
MUFFIN   0/783
MUSIC   0/321
N203_STAT   938
N203_SYSCHAT   313
NET203   321
NET204   69
NET_DEV   0/10
NORD.ADMIN   0/101
NORD.CHAT   0/2572
NORD.FIDONET   189
NORD.HARDWARE   0/28
NORD.KULTUR   0/114
NORD.PROG   0/32
NORD.SOFTWARE   0/88
NORD.TEKNIK   0/58
NORD   0/453
OCCULT_CHAT   0/93
OS2BBS   0/787
OS2DOSBBS   0/580
OS2HW   0/42
OS2INET   0/37
OS2LAN   0/134
OS2PROG   0/36
OS2REXX   0/113
OS2USER-L   207
OS2   616/4806
OSDEBATE   5087/18996
PASCAL   0/490
PERL   0/457
PHP   0/45
POINTS   0/405
POLITICS   6411/29554
POL_INC   5890/14731
PSION   103
R20_ADMIN   1130
R20_AMATORRADIO   0/2
R20_BEST_OF_FIDONET   14
R20_CHAT   0/893
R20_DEPP   0/3
R20_DEV   399
R20_ECHO2   1654
R20_ECHOPRES   0/35
R20_ESTAT   0/719
R20_FIDONETPROG...
...RAM.MYPOINT
  0/2
R20_FIDONETPROGRAM   0/22
R20_FIDONET   0/248
R20_FILEFIND   0/24
R20_FILEFOUND   0/22
R20_HIFI   0/3
R20_INFO2   3545
R20_INTERNET   0/12940
R20_INTRESSE   0/60
R20_INTR_KOM   0/99
R20_KANDIDAT.CHAT   42
R20_KANDIDAT   28
R20_KOM_DEV   112
R20_KONTROLL   0/13360
R20_KORSET   0/18
R20_LOKALTRAFIK   0/24
R20_MODERATOR   0/1852
R20_NC   76
R20_NET200   245
R20_NETWORK.OTH...
...ERNETS
  0/13
R20_OPERATIVSYS...
...TEM.LINUX
  0/44
R20_PROGRAMVAROR   0/1
R20_REC2NEC   534
R20_SFOSM   0/341
R20_SF   0/108
R20_SPRAK.ENGLISH   0/1
R20_SQUISH   107
R20_TEST   2
R20_WORST_OF_FIDONET   20
RAR   0/9
RA_MULTI   106
RA_UTIL   0/162
REGCON.EUR   0/2066
REGCON   0/13
SCIENCE   0/1206
SF   0/239
SHAREWARE_SUPPORT   0/5146
SHAREWRE   0/14
SIMPSONS   0/169
STATS_OLD1   0/2539.065
STATS_OLD2   0/2530
STATS_OLD3   0/2395.095
STATS_OLD4   0/1692.25
SURVIVOR   0/495
SYSOPS_CORNER   0/3
SYSOP   0/84
TAGLINES   0/112
TEAMOS2   2511/4530
TECH   906/2617
TEST.444   0/105
TRAPDOOR   0/19
TREK   0/755
TUB   0/290
UFO   0/40
UNIX   0/1316
USA_EURLINK   0/102
USR_MODEMS   0/1
VATICAN   0/2740
VIETNAM_VETS   0/14
VIRUS   0/378
VIRUS_INFO   0/201
VISUAL_BASIC   0/473
WHITEHOUSE   0/5187
WIN2000   0/101
WIN32   0/30
WIN95   2015/4291
WIN95_OLD1   0/70272
WINDOWS   0/1517
WWB_SYSOP   0/419
WWB_TECH   0/810
ZCC-PUBLIC   0/1
ZEC   4

 
4DOS   0/134
ABORTION   0/7
ALASKA_CHAT   0/506
ALLFIX_FILE   1231/1313
ALLFIX_FILE_OLD1   4221/7997
ALT_DOS   0/152
AMATEUR_RADIO   0/1039
AMIGASALE   0/14
AMIGA   0/331
AMIGA_INT   0/1
AMIGA_PROG   0/20
AMIGA_SYSOP   0/26
ANIME   0/15
ARGUS   0/924
ASCII_ART   0/340
ASIAN_LINK   0/651
ASTRONOMY   0/417
AUDIO   0/92
AUTOMOBILE_RACING   0/105
BABYLON5   0/17862
BAG   135
BATPOWER   0/361
BBBS.ENGLISH   0/382
BBSLAW   0/109
BBS_ADS   0/5290
BBS_INTERNET   0/507
BIBLE   0/3563
BINKD   691/1119
BINKLEY   0/215
BLUEWAVE   0/2173
CABLE_MODEMS   0/25
CBM   0/46
CDRECORD   0/66
CDROM   0/20
CLASSIC_COMPUTER   0/378
COMICS   0/15
CONSPRCY   0/899
COOKING   39569
COOKING_OLD1   3648/24719
COOKING_OLD2   21411/40862
COOKING_OLD3   20079/37489
COOKING_OLD4   2854/35496
COOKING_OLD5   9370
C_ECHO   0/189
C_PLUSPLUS   0/31
DIRTY_DOZEN   0/201
DOORGAMES   0/2143
DOS_INTERNET   0/196
duplikat   6101
ECHOLIST   2247/18295
EC_SUPPORT   0/318
ELECTRONICS   0/359
ELEKTRONIK.GER   1534
ENET.LINGUISTIC   0/13
ENET.POLITICS   0/4
ENET.SOFT   0/11701
ENET.SYSOP   34196
ENET.TALKS   0/32
ENGLISH_TUTOR   1285/2000
EVOLUTION   0/1335
FDECHO   0/217
FDN_ANNOUNCE   0/7068
FIDONEWS   24735
FIDONEWS_OLD1   38863/49742
FIDONEWS_OLD2   3886/35949
FIDONEWS_OLD3   0/30874
FIDONEWS_OLD4   20104/37224
FIDO_SYSOP   12913
FIDO_UTIL   0/180
FILEFIND   0/209
FILEGATE   0/212
Möte HAM, 16305 texter
 lista första sista föregående nästa
Text 2016, 816 rader
Skriven 2008-01-04 00:00:47 av Amsat List (1:323/120.0)
Ärende: [keps]  orb08003.amsa
=============================
[keps]  orb08003.amsa

Return-Path: <keps-bounces@amsat.org>
X-Rcpt: craig.healy@chowda.com
X-UIDL: 1199420302.5652

SB KEPS @ AMSAT  $ORB08003.O
Orbital Elements  08003.OSCAR

HR AMSAT ORBITAL ELEMENTS FOR OSCAR SATELLITES
FROM WA5QGD FORT WORTH,TX January 3, 2008
Send Subscribe/unsubscribe to KEPS at 
http://www.amsat.org/mailman/listinfo/keps
BID: ORB08003.O
TO ALL RADIO AMATEURS BT

Satellite: AO-07
Catalog number: 07530
Epoch time:      08002.65768752
Element set:    0070
Inclination:      101.4901 deg
RA of node:       039.5937 deg
Eccentricity:    0.0011884
Arg of perigee:   226.7834 deg
Mean anomaly:     133.2245 deg
Mean motion:   12.53573243 rev/day
Decay rate:       -2.8e-07 rev/day^2
Epoch rev:           51611
Checksum:              282

Satellite: AO-10
Catalog number: 14129
Epoch time:      08001.70306160
Element set:    0456
Inclination:      025.9454 deg
RA of node:       237.8553 deg
Eccentricity:    0.6042238
Arg of perigee:   086.4804 deg
Mean anomaly:     336.4590 deg
Mean motion:   02.05871848 rev/day
Decay rate:       -5.6e-07 rev/day^2
Epoch rev:           18465
Checksum:              302

Satellite: UO-11
Catalog number: 14781
Epoch time:      08002.69179365
Element set:    0561
Inclination:      098.1743 deg
RA of node:       034.0621 deg
Eccentricity:    0.0008127
Arg of perigee:   248.0801 deg
Mean anomaly:     111.9529 deg
Mean motion:   14.79605553 rev/day
Decay rate:      -2.04e-06 rev/day^2
Epoch rev:           27923
Checksum:              293

Satellite: RS-15
Catalog number: 23439
Epoch time:      08002.62796719
Element set:    0142
Inclination:      064.8190 deg
RA of node:       044.3912 deg
Eccentricity:    0.0152422
Arg of perigee:   154.4284 deg
Mean anomaly:     206.4278 deg
Mean motion:   11.27552157 rev/day
Decay rate:       -3.9e-07 rev/day^2
Epoch rev:           53618
Checksum:              298

Satellite: FO-29
Catalog number: 24278
Epoch time:      08002.87563247
Element set:    0677
Inclination:      098.5779 deg
RA of node:       300.9551 deg
Eccentricity:    0.0349945
Arg of perigee:   286.1613 deg
Mean anomaly:     070.1280 deg
Mean motion:   13.52935259 rev/day
Decay rate:       -6.2e-07 rev/day^2
Epoch rev:           56190
Checksum:              338

Satellite: SO-33
Catalog number: 25509
Epoch time:      08003.73936594
Element set:     101
Inclination:      031.4289 deg
RA of node:       171.8201 deg
Eccentricity:    0.0355439
Arg of perigee:   020.7157 deg
Mean anomaly:     340.7486 deg
Mean motion:   14.28191186 rev/day
Decay rate:       2.46e-06 rev/day^2
Epoch rev:           47994
Checksum:              312

Satellite: AO-40
Catalog number: 26609
Epoch time:      08002.39817030
Element set:     986
Inclination:      007.2364 deg
RA of node:       104.0231 deg
Eccentricity:    0.7929633
Arg of perigee:   038.2054 deg
Mean anomaly:     356.7900 deg
Mean motion:   01.25583288 rev/day
Decay rate:      -2.63e-06 rev/day^2
Epoch rev:            3294
Checksum:              297

Satellite: VO-52
Catalog number: 28650
Epoch time:      08003.38500725
Element set:     820
Inclination:      097.8111 deg
RA of node:       074.3850 deg
Eccentricity:    0.0026428
Arg of perigee:   323.4961 deg
Mean anomaly:     036.4407 deg
Mean motion:   14.81404060 rev/day
Decay rate:       1.64e-06 rev/day^2
Epoch rev:           14405
Checksum:              270

Satellite: PO-63
Catalog number: 29712
Epoch time:      08003.79406543
Element set:      62
Inclination:      097.8998 deg
RA of node:       064.9335 deg
Eccentricity:    0.0013995
Arg of perigee:   194.0028 deg
Mean anomaly:     166.0791 deg
Mean motion:   14.79966480 rev/day
Decay rate:       5.12e-06 rev/day^2
Epoch rev:            5300
Checksum:              328

/EX
SB KEPS @ AMSAT  $ORB08003.D
Orbital Elements  08003.MICROS

HR AMSAT ORBITAL ELEMENTS FOR THE MICROSATS
FROM WA5QGD FORT WORTH,TX January 3, 2008
Send Subscribe/unsubscribe to KEPS at 
http://www.amsat.org/mailman/listinfo/keps
BID: ORB08003.D
TO ALL RADIO AMATEURS BT

Satellite: AO-16
Catalog number: 20439
Epoch time:      08002.46950894
Element set:    0218
Inclination:      098.2136 deg
RA of node:       351.2157 deg
Eccentricity:    0.0010448
Arg of perigee:   318.3007 deg
Mean anomaly:     041.7387 deg
Mean motion:   14.31780209 rev/day
Decay rate:       -3.0e-08 rev/day^2
Epoch rev:           93706
Checksum:              289

Satellite: LO-19
Catalog number: 20442
Epoch time:      08002.68427535
Element set:    0142
Inclination:      098.1894 deg
RA of node:       000.4065 deg
Eccentricity:    0.0011265
Arg of perigee:   314.9081 deg
Mean anomaly:     045.1183 deg
Mean motion:   14.32019254 rev/day
Decay rate:       -7.2e-07 rev/day^2
Epoch rev:           93724
Checksum:              273

Satellite: AO-27
Catalog number: 22825
Epoch time:      08002.65236297
Element set:     865
Inclination:      098.3619 deg
RA of node:       329.1338 deg
Eccentricity:    0.0009255
Arg of perigee:   036.3347 deg
Mean anomaly:     323.8471 deg
Mean motion:   14.29226731 rev/day
Decay rate:       -1.0e-08 rev/day^2
Epoch rev:           74398
Checksum:              319

Satellite: IO-26
Catalog number: 22826
Epoch time:      08002.80527452
Element set:     565
Inclination:      098.3549 deg
RA of node:       330.2666 deg
Eccentricity:    0.0009605
Arg of perigee:   033.6355 deg
Mean anomaly:     326.5430 deg
Mean motion:   14.29474178 rev/day
Decay rate:       -2.0e-08 rev/day^2
Epoch rev:           74409
Checksum:              305

